FUTABA

Last updated on Thu Feb 16 2023 00:02:07 GMT+0000 (Coordinated Universal Time)

1 53463U 98067UC 23046.43758746 .03638700 11921-4 15747-2 0 9991 2 53463 51.6154 189.5156 0009820 313.6415 46.3788 16.21747504 29310

Satellite not in orbit